Flag for United Kingdom Weather past 2 weeks in Kingston upon Hull, England, United Kingdom

Now
34 °F

Light snow. Broken clouds.


Feels Like: 23 °F
Forecast: 31 / 42 °F
Wind: 16 mph from Northwest

Location: Humberside

Current Time: Feb 1, 2015 at 9:00:48 AM

Latest Report: Feb 1, 2015 at 8:20 AM


Visibility: 1 mi

Pressure: 29.42 "Hg

Humidity: 100%

Dew point: 34 °F

Location of Kingston upon HullLocation

Historic Weather in Kingston upon Hull — Graph

°F

Kingston upon Hull temperature yesterday

Maximum temperature yesterday: 39 °F (at 12:50 PM)
Minimum temperature yesterday: 34 °F (at 12:20 AM)
Average temperature yesterday: 36 °F

Past Weeks' High & Low Weather Summary

 TemperatureHumidityPressure
High50 °F (Jan 26, 6:20 AM)100% (Jan 18, 4:20 AM)30.39 "Hg (Jan 18, 4:20 AM)
Low27 °F (Jan 18, 7:50 AM)61% (Jan 22, 12:50 PM)28.77 "Hg (Jan 29, 2:20 PM)
Average38 °F87%29.75 "Hg
* Reported Jan 17 7:20 AM — Feb 1 7:50 AM, Kingston upon Hull, Weather by CustomWeather, © 2014

Note: Actual official high and low records may vary slightly from our data, if they occured in-between our weather recording intervals... More about our weather records

Advertising

Kingston upon Hull weather history for previous 24 hours

 ConditionsComfort  
Time TempWeatherWind HumidityBarometerVisibility
7:50 AM
Feb 1
36 °FRain. Broken clouds.20 mph93%29.39 "Hg3 mi
7:20 AM36 °FRain. Partly cloudy.21 mph93%29.36 "Hg4 mi
6:50 AM36 °FLight rain. Partly cloudy.18 mph93%29.36 "HgN/A
6:20 AM37 °FPartly cloudy.23 mph87%29.33 "HgN/A
5:50 AM37 °FLight rain. Partly cloudy.22 mph87%29.33 "HgN/A
5:20 AM37 °FLight rain. Mostly cloudy.22 mph87%29.30 "HgN/A
4:50 AM37 °FMostly cloudy.22 mph87%29.30 "HgN/A
4:20 AM37 °FMostly cloudy.24 mph87%29.30 "HgN/A
3:50 AM37 °FOvercast.22 mph81%29.27 "HgN/A
3:20 AM37 °FMostly cloudy.21 mph87%29.27 "HgN/A
2:50 AM39 °FLight rain. Mostly cloudy.22 mph75%29.27 "HgN/A
2:20 AM37 °FMostly cloudy.22 mph81%29.24 "HgN/A
1:50 AM37 °FMostly cloudy.24 mph75%29.24 "HgN/A
1:20 AM37 °FPassing clouds.23 mph75%29.24 "HgN/A
12:50 AM37 °FPassing clouds.21 mph70%29.24 "HgN/A
12:20 AM37 °FPassing clouds.23 mph70%29.24 "HgN/A
11:50 PM
Jan 31
37 °FChilly.22 mph70%29.24 "HgN/A
11:20 PM37 °FPassing clouds.22 mph70%29.24 "HgN/A
10:50 PM37 °FChilly.21 mph70%29.24 "HgN/A
10:20 PM37 °FChilly.23 mph70%29.24 "HgN/A
9:50 PM37 °FPassing clouds.18 mph70%29.24 "HgN/A
9:20 PM37 °FPassing clouds.20 mph70%29.24 "HgN/A
8:50 PM37 °FPassing clouds.22 mph70%29.24 "HgN/A
8:20 PM37 °FPassing clouds.21 mph70%29.24 "HgN/A
7:50 PM37 °FPassing clouds.18 mph70%29.24 "HgN/A
7:20 PM37 °FPassing clouds.16 mph75%29.24 "HgN/A
6:50 PM39 °FPassing clouds.17 mph70%29.21 "HgN/A
6:20 PM39 °FPassing clouds.18 mph70%29.21 "HgN/A
5:20 PM39 °FPassing clouds.17 mph75%29.18 "HgN/A
4:50 PM39 °FPassing clouds.21 mph75%29.18 "HgN/A
4:20 PM39 °FPartly sunny.18 mph81%29.15 "HgN/A
3:20 PM39 °FLight rain. Partly sunny.14 mph87%29.12 "HgN/A
2:50 PM37 °FLight rain. Partly sunny.9 mph93%29.12 "HgN/A
2:20 PM39 °FLight rain. Partly sunny.17 mph87%29.09 "HgN/A
1:50 PM39 °FSprinkles. Broken clouds.22 mph87%29.09 "HgN/A
1:20 PM39 °FBroken clouds.22 mph87%29.06 "HgN/A
12:50 PM39 °FLight rain. Broken clouds.20 mph87%29.06 "Hg5 mi
12:20 PM37 °FLight rain. Broken clouds.16 mph93%29.03 "Hg5 mi
11:50 AM37 °FBroken clouds.15 mph93%29.03 "Hg5 mi
11:20 AM37 °FRain. Broken clouds.13 mph93%29.03 "Hg4 mi
10:50 AM37 °FRain. Broken clouds.17 mph93%29.00 "Hg4 mi
10:20 AM36 °FLight rain. Broken clouds.10 mph93%29.00 "Hg4 mi
9:50 AM34 °FSnow. Cloudy.14 mph100%28.97 "Hg2 mi
9:20 AM34 °FSnow. Mostly cloudy.15 mph100%28.94 "Hg2 mi
Weather by CustomWeather, © 2014

See weather overviewHow to use our weather pages